PWSweather.com
Personal Weather Stations
Station Observations
CARNOUSTIE
Pambride, CarnoustieGB DD7 6DY

PambrideCarnoustieGB DD7 6DY

Lat: 56.50889, Lon: -2.7051

Elevation: 105

Station Type: Oregon Scientific WMR200

www.carnoustieweather.co.uk

High Low Average
Temperature 59.4°F15.2°C 37.9°F3.3°C 48.6°F9.2°C
Dew Point 45.7°F7.6°C 35.5°F1.9°C 40.1°F4.5°C
Winds 19.6 mph 31.5 kmh 1.2 mph 1.9 kmh 8.0 mph WSW12.9 kmh WSW
Wind Gusts 24.2 mph38.9 kmh 2.3 mph3.7 kmh 9.0 mph14.5 kmh
Humidity 96% 49% 74%
Pressure 29.56 in1001.0 mb 29.47 in998.0 mb -
Precipitation 0.00 in0.0 mm - -
Hour Temp Dew Point Humidity Winds Wind Gusts Pressure Precip Precip Rate Daily Precip Total
12:00 AM 41.9°F5.5°C 39.2°F4.0°C 90% 4.6 mph W7.4 kmh W 4.6 mph7.4 kmh 29.56 in1001.0 mb - 0.00 in0.0 mm 0.00 in0.0 mm
12:10 AM 41.4°F5.2°C 38.6°F3.7°C 90% 4.6 mph W7.4 kmh W 5.8 mph9.3 kmh 29.56 in1001.0 mb - 0.00 in0.0 mm 0.00 in0.0 mm
12:20 AM 40.7°F4.8°C 38.0°F3.3°C 90% 3.5 mph W5.6 kmh W 3.5 mph5.6 kmh 29.56 in1001.0 mb - 0.00 in0.0 mm 0.00 in0.0 mm
12:30 AM 40.5°F4.7°C 37.5°F3.1°C 89% 3.5 mph W5.6 kmh W 5.8 mph9.3 kmh 29.56 in1001.0 mb - 0.00 in0.0 mm 0.00 in0.0 mm
12:40 AM 40.4°F4.7°C 37.7°F3.2°C 90% 3.5 mph WNW5.6 kmh WNW 4.6 mph7.4 kmh 29.56 in1001.0 mb - 0.00 in0.0 mm 0.00 in0.0 mm
12:50 AM 39.7°F4.3°C 37.0°F2.8°C 90% 3.5 mph W5.6 kmh W 4.6 mph7.4 kmh 29.56 in1001.0 mb - 0.00 in0.0 mm 0.00 in0.0 mm
01:00 AM 39.7°F4.3°C 37.0°F2.8°C 90% 4.6 mph W7.4 kmh W 3.5 mph5.6 kmh 29.56 in1001.0 mb - 0.00 in0.0 mm 0.00 in0.0 mm
01:10 AM 39.7°F4.3°C 37.0°F2.8°C 90% 3.5 mph W5.6 kmh W 3.5 mph5.6 kmh 29.56 in1001.0 mb - 0.00 in0.0 mm 0.00 in0.0 mm
01:20 AM 39.7°F4.3°C 37.0°F2.8°C 90% 3.5 mph W5.6 kmh W 3.5 mph5.6 kmh 29.56 in1001.0 mb - 0.00 in0.0 mm 0.00 in0.0 mm
01:30 AM 39.4°F4.1°C 36.7°F2.6°C 90% 2.3 mph W3.7 kmh W 2.3 mph3.7 kmh 29.56 in1001.0 mb - 0.00 in0.0 mm 0.00 in0.0 mm
01:40 AM 39.0°F3.9°C 36.3°F2.4°C 90% 3.5 mph W5.6 kmh W 2.3 mph3.7 kmh 29.56 in1001.0 mb - 0.00 in0.0 mm 0.00 in0.0 mm
01:50 AM 39.2°F4.0°C 36.5°F2.5°C 90% 2.3 mph W3.7 kmh W 2.3 mph3.7 kmh 29.56 in1001.0 mb - 0.00 in0.0 mm 0.00 in0.0 mm
02:00 AM 38.7°F3.7°C 36.0°F2.2°C 90% 3.5 mph W5.6 kmh W 3.5 mph5.6 kmh 29.56 in1001.0 mb - 0.00 in0.0 mm 0.00 in0.0 mm
02:10 AM 38.9°F3.8°C 36.5°F2.5°C 91% 5.8 mph WNW9.3 kmh WNW 5.8 mph9.3 kmh 29.56 in1001.0 mb - 0.00 in0.0 mm 0.00 in0.0 mm
02:20 AM 39.0°F3.9°C 36.9°F2.7°C 92% 3.5 mph WSW5.6 kmh WSW 3.5 mph5.6 kmh 29.56 in1001.0 mb - 0.00 in0.0 mm 0.00 in0.0 mm
02:30 AM 38.8°F3.8°C 36.7°F2.6°C 92% 3.5 mph W5.6 kmh W 3.5 mph5.6 kmh 29.56 in1001.0 mb - 0.00 in0.0 mm 0.00 in0.0 mm
02:40 AM 38.7°F3.7°C 36.3°F2.4°C 91% 3.5 mph W5.6 kmh W 3.5 mph5.6 kmh 29.56 in1001.0 mb - 0.00 in0.0 mm 0.00 in0.0 mm
02:50 AM 38.5°F3.6°C 36.1°F2.3°C 91% 2.3 mph W3.7 kmh W 3.5 mph5.6 kmh 29.56 in1001.0 mb - 0.00 in0.0 mm 0.00 in0.0 mm
03:00 AM 38.3°F3.5°C 36.2°F2.3°C 92% 3.5 mph W5.6 kmh W 3.5 mph5.6 kmh 29.56 in1001.0 mb - 0.00 in0.0 mm 0.00 in0.0 mm
03:10 AM 37.9°F3.3°C 35.5°F1.9°C 91% 3.5 mph WSW5.6 kmh WSW 3.5 mph5.6 kmh 29.56 in1001.0 mb - 0.00 in0.0 mm 0.00 in0.0 mm
03:20 AM 38.4°F3.6°C 36.3°F2.4°C 92% 3.5 mph WSW5.6 kmh WSW 3.5 mph5.6 kmh 29.56 in1001.0 mb - 0.00 in0.0 mm 0.00 in0.0 mm
03:30 AM 38.5°F3.6°C 36.6°F2.6°C 93% 3.5 mph WSW5.6 kmh WSW 3.5 mph5.6 kmh 29.56 in1001.0 mb - 0.00 in0.0 mm 0.00 in0.0 mm
03:40 AM 38.5°F3.6°C 36.6°F2.6°C 93% 3.5 mph W5.6 kmh W 3.5 mph5.6 kmh 29.56 in1001.0 mb - 0.00 in0.0 mm 0.00 in0.0 mm
03:50 AM 38.8°F3.8°C 36.9°F2.7°C 93% 3.5 mph W5.6 kmh W 3.5 mph5.6 kmh 29.56 in1001.0 mb - 0.00 in0.0 mm 0.00 in0.0 mm
04:00 AM 39.2°F4.0°C 37.3°F2.9°C 93% 4.6 mph W7.4 kmh W 4.6 mph7.4 kmh 29.56 in1001.0 mb - 0.00 in0.0 mm 0.00 in0.0 mm
04:10 AM 39.7°F4.3°C 38.2°F3.4°C 94% 4.6 mph WSW7.4 kmh WSW 3.5 mph5.6 kmh 29.56 in1001.0 mb - 0.00 in0.0 mm 0.00 in0.0 mm
04:20 AM 39.9°F4.4°C 38.3°F3.5°C 94% 4.6 mph W7.4 kmh W 4.6 mph7.4 kmh 29.56 in1001.0 mb - 0.00 in0.0 mm 0.00 in0.0 mm
04:30 AM 39.7°F4.3°C 37.9°F3.3°C 93% 2.3 mph W3.7 kmh W 3.5 mph5.6 kmh 29.56 in1001.0 mb - 0.00 in0.0 mm 0.00 in0.0 mm
04:40 AM 39.4°F4.1°C 37.5°F3.1°C 93% 2.3 mph WSW3.7 kmh WSW 3.5 mph5.6 kmh 29.56 in1001.0 mb - 0.00 in0.0 mm 0.00 in0.0 mm
04:50 AM 39.6°F4.2°C 37.7°F3.2°C 93% 3.5 mph W5.6 kmh W 3.5 mph5.6 kmh 29.56 in1001.0 mb - 0.00 in0.0 mm 0.00 in0.0 mm
05:00 AM 39.4°F4.1°C 37.5°F3.1°C 93% 3.5 mph W5.6 kmh W 3.5 mph5.6 kmh 29.53 in1000.0 mb - 0.00 in0.0 mm 0.00 in0.0 mm
05:10 AM 39.4°F4.1°C 37.5°F3.1°C 93% 4.6 mph W7.4 kmh W 4.6 mph7.4 kmh 29.53 in1000.0 mb - 0.00 in0.0 mm 0.00 in0.0 mm
05:20 AM 39.4°F4.1°C 37.8°F3.2°C 94% 3.5 mph W5.6 kmh W 3.5 mph5.6 kmh 29.53 in1000.0 mb - 0.00 in0.0 mm 0.00 in0.0 mm
05:30 AM 39.8°F4.3°C 38.2°F3.4°C 94% 3.5 mph WSW5.6 kmh WSW 3.5 mph5.6 kmh 29.56 in1001.0 mb - 0.00 in0.0 mm 0.00 in0.0 mm
05:40 AM 39.9°F4.4°C 38.3°F3.5°C 94% 1.2 mph WSW1.9 kmh WSW 2.3 mph3.7 kmh 29.56 in1001.0 mb - 0.00 in0.0 mm 0.00 in0.0 mm
05:50 AM 40.2°F4.6°C 38.6°F3.7°C 94% 1.2 mph WSW1.9 kmh WSW 2.3 mph3.7 kmh 29.56 in1001.0 mb - 0.00 in0.0 mm 0.00 in0.0 mm
06:00 AM 40.9°F4.9°C 39.6°F4.2°C 95% 2.3 mph W3.7 kmh W 2.3 mph3.7 kmh 29.56 in1001.0 mb - 0.00 in0.0 mm 0.00 in0.0 mm
06:10 AM 41.8°F5.4°C 40.5°F4.7°C 95% 2.3 mph W3.7 kmh W 2.3 mph3.7 kmh 29.56 in1001.0 mb - 0.00 in0.0 mm 0.00 in0.0 mm
06:20 AM 43.0°F6.1°C 41.6°F5.3°C 95% 4.6 mph SW7.4 kmh SW 3.5 mph5.6 kmh 29.56 in1001.0 mb - 0.00 in0.0 mm 0.00 in0.0 mm
06:30 AM 44.1°F6.7°C 42.7°F5.9°C 95% 4.6 mph WSW7.4 kmh WSW 4.6 mph7.4 kmh 29.56 in1001.0 mb - 0.00 in0.0 mm 0.00 in0.0 mm
06:40 AM 45.1°F7.3°C 44.1°F6.7°C 96% 5.8 mph WSW9.3 kmh WSW 6.9 mph11.1 kmh 29.56 in1001.0 mb - 0.00 in0.0 mm 0.00 in0.0 mm
06:50 AM 46.3°F7.9°C 45.0°F7.2°C 95% 4.6 mph W7.4 kmh W 5.8 mph9.3 kmh 29.56 in1001.0 mb - 0.00 in0.0 mm 0.00 in0.0 mm
07:00 AM 47.4°F8.6°C 45.5°F7.5°C 93% 3.5 mph SW5.6 kmh SW 4.6 mph7.4 kmh 29.56 in1001.0 mb - 0.00 in0.0 mm 0.00 in0.0 mm
07:10 AM 47.3°F8.5°C 44.2°F6.8°C 89% 5.8 mph WNW9.3 kmh WNW 6.9 mph11.1 kmh 29.53 in1000.0 mb - 0.00 in0.0 mm 0.00 in0.0 mm
07:20 AM 47.9°F8.8°C 44.3°F6.8°C 87% 4.6 mph SW7.4 kmh SW 4.6 mph7.4 kmh 29.53 in1000.0 mb - 0.00 in0.0 mm 0.00 in0.0 mm
07:30 AM 48.8°F9.3°C 44.8°F7.1°C 86% 4.6 mph SW7.4 kmh SW 5.8 mph9.3 kmh 29.56 in1001.0 mb - 0.00 in0.0 mm 0.00 in0.0 mm
07:40 AM 49.6°F9.8°C 45.0°F7.2°C 84% 5.8 mph WSW9.3 kmh WSW 6.9 mph11.1 kmh 29.56 in1001.0 mb - 0.00 in0.0 mm 0.00 in0.0 mm
07:50 AM 49.3°F9.6°C 44.0°F6.7°C 82% 4.6 mph W7.4 kmh W 8.1 mph13.0 kmh 29.56 in1001.0 mb - 0.00 in0.0 mm 0.00 in0.0 mm
08:00 AM 51.1°F10.6°C 45.1°F7.3°C 80% 5.8 mph SW9.3 kmh SW 6.9 mph11.1 kmh 29.56 in1001.0 mb - 0.00 in0.0 mm 0.00 in0.0 mm
08:10 AM 50.6°F10.3°C 43.7°F6.5°C 77% 6.9 mph WSW11.1 kmh WSW 5.8 mph9.3 kmh 29.56 in1001.0 mb - 0.00 in0.0 mm 0.00 in0.0 mm
08:20 AM 51.1°F10.6°C 43.5°F6.4°C 75% 3.5 mph SW5.6 kmh SW 5.8 mph9.3 kmh 29.56 in1001.0 mb - 0.00 in0.0 mm 0.00 in0.0 mm
08:30 AM 49.8°F9.9°C 42.2°F5.7°C 75% 8.1 mph S13.0 kmh S 3.5 mph5.6 kmh 29.53 in1000.0 mb - 0.00 in0.0 mm 0.00 in0.0 mm
08:40 AM 51.6°F10.9°C 44.0°F6.7°C 75% 8.1 mph WSW13.0 kmh WSW 11.5 mph18.5 kmh 29.56 in1001.0 mb - 0.00 in0.0 mm 0.00 in0.0 mm
08:50 AM 52.3°F11.3°C 42.8°F6.0°C 70% 8.1 mph WSW13.0 kmh WSW 10.4 mph16.7 kmh 29.56 in1001.0 mb - 0.00 in0.0 mm 0.00 in0.0 mm
09:00 AM 53.7°F12.1°C 43.8°F6.6°C 69% 8.1 mph SW13.0 kmh SW 6.9 mph11.1 kmh 29.53 in1000.0 mb - 0.00 in0.0 mm 0.00 in0.0 mm
09:10 AM 55.6°F13.1°C 44.4°F6.9°C 66% 6.9 mph WSW11.1 kmh WSW 4.6 mph7.4 kmh 29.53 in1000.0 mb - 0.00 in0.0 mm 0.00 in0.0 mm
09:20 AM 54.5°F12.5°C 43.0°F6.1°C 65% 10.4 mph SW16.7 kmh SW 10.4 mph16.7 kmh 29.53 in1000.0 mb - 0.00 in0.0 mm 0.00 in0.0 mm
09:30 AM 55.2°F12.9°C 42.8°F6.0°C 63% 10.4 mph WSW16.7 kmh WSW 9.2 mph14.8 kmh 29.53 in1000.0 mb - 0.00 in0.0 mm 0.00 in0.0 mm
09:40 AM 54.2°F12.3°C 43.1°F6.2°C 66% 8.1 mph SW13.0 kmh SW 11.5 mph18.5 kmh 29.53 in1000.0 mb - 0.00 in0.0 mm 0.00 in0.0 mm
09:50 AM 52.5°F11.4°C 43.8°F6.6°C 72% 8.1 mph SW13.0 kmh SW 11.5 mph18.5 kmh 29.53 in1000.0 mb - 0.00 in0.0 mm 0.00 in0.0 mm
10:00 AM 52.3°F11.3°C 45.6°F7.6°C 78% 6.9 mph WSW11.1 kmh WSW 8.1 mph13.0 kmh 29.53 in1000.0 mb - 0.00 in0.0 mm 0.00 in0.0 mm
10:10 AM 53.4°F11.9°C 45.7°F7.6°C 75% 5.8 mph WSW9.3 kmh WSW 4.6 mph7.4 kmh 29.53 in1000.0 mb - 0.00 in0.0 mm 0.00 in0.0 mm
10:20 AM 53.0°F11.7°C 44.2°F6.8°C 72% 9.2 mph SSW14.8 kmh SSW 13.8 mph22.2 kmh 29.53 in1000.0 mb - 0.00 in0.0 mm 0.00 in0.0 mm
10:30 AM 55.8°F13.2°C 45.4°F7.4°C 68% 6.9 mph W11.1 kmh W 5.8 mph9.3 kmh 29.53 in1000.0 mb - 0.00 in0.0 mm 0.00 in0.0 mm
10:40 AM 54.4°F12.4°C 43.3°F6.3°C 66% 10.4 mph WSW16.7 kmh WSW 18.4 mph29.6 kmh 29.50 in999.0 mb - 0.00 in0.0 mm 0.00 in0.0 mm
10:50 AM 55.1°F12.8°C 41.9°F5.5°C 61% 10.4 mph WSW16.7 kmh WSW 17.3 mph27.8 kmh 29.50 in999.0 mb - 0.00 in0.0 mm 0.00 in0.0 mm
11:00 AM 56.5°F13.6°C 42.3°F5.7°C 59% 10.4 mph SSW16.7 kmh SSW 17.3 mph27.8 kmh 29.50 in999.0 mb - 0.00 in0.0 mm 0.00 in0.0 mm
11:10 AM 57.9°F14.4°C 44.1°F6.7°C 60% 8.1 mph SW13.0 kmh SW 11.5 mph18.5 kmh 29.50 in999.0 mb - 0.00 in0.0 mm 0.00 in0.0 mm
11:20 AM 58.5°F14.7°C 42.3°F5.7°C 55% 8.1 mph WSW13.0 kmh WSW 12.7 mph20.4 kmh 29.50 in999.0 mb - 0.00 in0.0 mm 0.00 in0.0 mm
11:30 AM 59.2°F15.1°C 41.1°F5.1°C 51% 11.5 mph W18.5 kmh W 13.8 mph22.2 kmh 29.50 in999.0 mb - 0.00 in0.0 mm 0.00 in0.0 mm
11:40 AM 58.7°F14.8°C 40.6°F4.8°C 51% 11.5 mph WSW18.5 kmh WSW 12.7 mph20.4 kmh 29.50 in999.0 mb - 0.00 in0.0 mm 0.00 in0.0 mm
11:50 AM 58.8°F14.9°C 41.2°F5.1°C 52% 10.4 mph WNW16.7 kmh WNW 15.0 mph24.1 kmh 29.50 in999.0 mb - 0.00 in0.0 mm 0.00 in0.0 mm
12:00 PM 58.9°F14.9°C 41.3°F5.2°C 52% 12.7 mph SW20.4 kmh SW 13.8 mph22.2 kmh 29.47 in998.0 mb - 0.00 in0.0 mm 0.00 in0.0 mm
12:10 PM 54.5°F12.5°C 40.5°F4.7°C 59% 9.2 mph SW14.8 kmh SW 9.2 mph14.8 kmh 29.50 in999.0 mb - 0.00 in0.0 mm 0.00 in0.0 mm
12:20 PM 56.3°F13.5°C 44.3°F6.8°C 64% 5.8 mph W9.3 kmh W 9.2 mph14.8 kmh 29.50 in999.0 mb - 0.00 in0.0 mm 0.00 in0.0 mm
12:30 PM 53.6°F12.0°C 40.9°F4.9°C 62% 18.4 mph WSW29.6 kmh WSW 17.3 mph27.8 kmh 29.50 in999.0 mb - 0.00 in0.0 mm 0.00 in0.0 mm
12:40 PM 51.3°F10.7°C 42.3°F5.7°C 71% 8.1 mph WSW13.0 kmh WSW 10.4 mph16.7 kmh 29.50 in999.0 mb - 0.00 in0.0 mm 0.00 in0.0 mm
12:50 PM 51.5°F10.8°C 43.5°F6.4°C 74% 5.8 mph SW9.3 kmh SW 9.2 mph14.8 kmh 29.50 in999.0 mb - 0.00 in0.0 mm 0.00 in0.0 mm
01:00 PM 56.8°F13.8°C 44.4°F6.9°C 63% 5.8 mph W9.3 kmh W 4.6 mph7.4 kmh 29.50 in999.0 mb - 0.00 in0.0 mm 0.00 in0.0 mm
01:10 PM 58.2°F14.6°C 40.6°F4.8°C 52% 12.7 mph W20.4 kmh W 10.4 mph16.7 kmh 29.50 in999.0 mb - 0.00 in0.0 mm 0.00 in0.0 mm
01:20 PM 58.6°F14.8°C 41.1°F5.1°C 52% 15.0 mph WSW24.1 kmh WSW 15.0 mph24.1 kmh 29.50 in999.0 mb - 0.00 in0.0 mm 0.00 in0.0 mm
01:30 PM 57.9°F14.4°C 40.9°F4.9°C 53% 11.5 mph WNW18.5 kmh WNW 11.5 mph18.5 kmh 29.47 in998.0 mb - 0.00 in0.0 mm 0.00 in0.0 mm
01:40 PM 58.6°F14.8°C 41.5°F5.3°C 53% 10.4 mph WNW16.7 kmh WNW 13.8 mph22.2 kmh 29.50 in999.0 mb - 0.00 in0.0 mm 0.00 in0.0 mm
01:50 PM 57.7°F14.3°C 40.7°F4.8°C 53% 12.7 mph WNW20.4 kmh WNW 12.7 mph20.4 kmh 29.50 in999.0 mb - 0.00 in0.0 mm 0.00 in0.0 mm
02:00 PM 57.5°F14.2°C 40.0°F4.4°C 52% 9.2 mph WSW14.8 kmh WSW 11.5 mph18.5 kmh 29.47 in998.0 mb - 0.00 in0.0 mm 0.00 in0.0 mm
02:10 PM 57.5°F14.2°C 39.0°F3.9°C 50% 18.4 mph SSW29.6 kmh SSW 24.2 mph38.9 kmh 29.50 in999.0 mb - 0.00 in0.0 mm 0.00 in0.0 mm
02:20 PM 57.7°F14.3°C 39.7°F4.3°C 51% 16.1 mph WSW25.9 kmh WSW 24.2 mph38.9 kmh 29.50 in999.0 mb - 0.00 in0.0 mm 0.00 in0.0 mm
02:30 PM 57.4°F14.1°C 39.5°F4.2°C 51% 16.1 mph WSW25.9 kmh WSW 19.6 mph31.5 kmh 29.50 in999.0 mb - 0.00 in0.0 mm 0.00 in0.0 mm
02:40 PM 56.9°F13.8°C 40.5°F4.7°C 54% 16.1 mph SW25.9 kmh SW 12.7 mph20.4 kmh 29.50 in999.0 mb - 0.00 in0.0 mm 0.00 in0.0 mm
02:50 PM 58.0°F14.4°C 39.9°F4.4°C 51% 15.0 mph WSW24.1 kmh WSW 12.7 mph20.4 kmh 29.50 in999.0 mb - 0.00 in0.0 mm 0.00 in0.0 mm
03:00 PM 58.1°F14.5°C 40.1°F4.5°C 51% 13.8 mph SW22.2 kmh SW 16.1 mph25.9 kmh 29.47 in998.0 mb - 0.00 in0.0 mm 0.00 in0.0 mm
03:10 PM 58.5°F14.7°C 39.9°F4.4°C 50% 11.5 mph WSW18.5 kmh WSW 11.5 mph18.5 kmh 29.50 in999.0 mb - 0.00 in0.0 mm 0.00 in0.0 mm
03:20 PM 59.4°F15.2°C 40.2°F4.6°C 49% 9.2 mph WNW14.8 kmh WNW 10.4 mph16.7 kmh 29.50 in999.0 mb - 0.00 in0.0 mm 0.00 in0.0 mm
03:30 PM 57.4°F14.1°C 38.9°F3.8°C 50% 13.8 mph WSW22.2 kmh WSW 20.7 mph33.3 kmh 29.50 in999.0 mb - 0.00 in0.0 mm 0.00 in0.0 mm
03:40 PM 55.2°F12.9°C 41.6°F5.3°C 60% 15.0 mph WSW24.1 kmh WSW 20.7 mph33.3 kmh 29.47 in998.0 mb - 0.00 in0.0 mm 0.00 in0.0 mm
03:50 PM 55.2°F12.9°C 40.6°F4.8°C 58% 12.7 mph SW20.4 kmh SW 13.8 mph22.2 kmh 29.47 in998.0 mb - 0.00 in0.0 mm 0.00 in0.0 mm
04:00 PM 56.0°F13.3°C 40.1°F4.5°C 55% 15.0 mph W24.1 kmh W 18.4 mph29.6 kmh 29.50 in999.0 mb - 0.00 in0.0 mm 0.00 in0.0 mm
04:10 PM 56.3°F13.5°C 41.7°F5.4°C 58% 18.4 mph WSW29.6 kmh WSW 17.3 mph27.8 kmh 29.50 in999.0 mb - 0.00 in0.0 mm 0.00 in0.0 mm
04:20 PM 55.6°F13.1°C 39.7°F4.3°C 55% 13.8 mph WSW22.2 kmh WSW 21.9 mph35.2 kmh 29.50 in999.0 mb - 0.00 in0.0 mm 0.00 in0.0 mm
04:30 PM 58.3°F14.6°C 40.2°F4.6°C 51% 9.2 mph WSW14.8 kmh WSW 11.5 mph18.5 kmh 29.50 in999.0 mb - 0.00 in0.0 mm 0.00 in0.0 mm
04:40 PM 56.8°F13.8°C 38.9°F3.8°C 51% 11.5 mph WSW18.5 kmh WSW 13.8 mph22.2 kmh 29.47 in998.0 mb - 0.00 in0.0 mm 0.00 in0.0 mm
04:50 PM 56.6°F13.7°C 40.6°F4.8°C 55% 10.4 mph W16.7 kmh W 8.1 mph13.0 kmh 29.47 in998.0 mb - 0.00 in0.0 mm 0.00 in0.0 mm
05:00 PM 56.8°F13.8°C 40.8°F4.9°C 55% 11.5 mph SW18.5 kmh SW 13.8 mph22.2 kmh 29.50 in999.0 mb - 0.00 in0.0 mm 0.00 in0.0 mm
05:10 PM 55.7°F13.2°C 39.3°F4.1°C 54% 13.8 mph WNW22.2 kmh WNW 23.0 mph37.0 kmh 29.50 in999.0 mb - 0.00 in0.0 mm 0.00 in0.0 mm
05:20 PM 55.2°F12.9°C 39.8°F4.3°C 56% 19.6 mph W31.5 kmh W 20.7 mph33.3 kmh 29.50 in999.0 mb - 0.00 in0.0 mm 0.00 in0.0 mm
05:30 PM 52.9°F11.6°C 40.2°F4.6°C 62% 12.7 mph W20.4 kmh W 15.0 mph24.1 kmh 29.50 in999.0 mb - 0.00 in0.0 mm 0.00 in0.0 mm
05:40 PM 52.7°F11.5°C 40.5°F4.7°C 63% 12.7 mph SW20.4 kmh SW 18.4 mph29.6 kmh 29.50 in999.0 mb - 0.00 in0.0 mm 0.00 in0.0 mm
05:50 PM 54.7°F12.6°C 41.1°F5.1°C 60% 12.7 mph WSW20.4 kmh WSW 20.7 mph33.3 kmh 29.50 in999.0 mb - 0.00 in0.0 mm 0.00 in0.0 mm
06:00 PM 53.5°F11.9°C 40.0°F4.4°C 60% 8.1 mph W13.0 kmh W 8.1 mph13.0 kmh 29.47 in998.0 mb - 0.00 in0.0 mm 0.00 in0.0 mm
06:10 PM 51.9°F11.1°C 39.7°F4.3°C 63% 12.7 mph WSW20.4 kmh WSW 17.3 mph27.8 kmh 29.50 in999.0 mb - 0.00 in0.0 mm 0.00 in0.0 mm
06:20 PM 51.2°F10.7°C 39.4°F4.1°C 64% 12.7 mph W20.4 kmh W 13.8 mph22.2 kmh 29.50 in999.0 mb - 0.00 in0.0 mm 0.00 in0.0 mm
06:30 PM 52.1°F11.2°C 39.8°F4.3°C 63% 9.2 mph WSW14.8 kmh WSW 11.5 mph18.5 kmh 29.50 in999.0 mb - 0.00 in0.0 mm 0.00 in0.0 mm
06:40 PM 52.9°F11.6°C 40.2°F4.6°C 62% 8.1 mph NW13.0 kmh NW 9.2 mph14.8 kmh 29.50 in999.0 mb - 0.00 in0.0 mm 0.00 in0.0 mm
06:50 PM 52.4°F11.3°C 39.8°F4.3°C 62% 11.5 mph SW18.5 kmh SW 9.2 mph14.8 kmh 29.50 in999.0 mb - 0.00 in0.0 mm 0.00 in0.0 mm
07:00 PM 50.8°F10.4°C 39.4°F4.1°C 65% 9.2 mph WSW14.8 kmh WSW 5.8 mph9.3 kmh 29.50 in999.0 mb - 0.00 in0.0 mm 0.00 in0.0 mm
07:10 PM 50.0°F10.0°C 39.5°F4.2°C 67% 8.1 mph WSW13.0 kmh WSW 11.5 mph18.5 kmh 29.50 in999.0 mb - 0.00 in0.0 mm 0.00 in0.0 mm
07:20 PM 49.3°F9.6°C 39.2°F4.0°C 68% 11.5 mph WSW18.5 kmh WSW 13.8 mph22.2 kmh 29.50 in999.0 mb - 0.00 in0.0 mm 0.00 in0.0 mm
07:30 PM 48.9°F9.4°C 39.2°F4.0°C 69% 9.2 mph W14.8 kmh W 13.8 mph22.2 kmh 29.50 in999.0 mb - 0.00 in0.0 mm 0.00 in0.0 mm
07:40 PM 48.6°F9.2°C 39.2°F4.0°C 70% 8.1 mph WSW13.0 kmh WSW 5.8 mph9.3 kmh 29.50 in999.0 mb - 0.00 in0.0 mm 0.00 in0.0 mm
07:50 PM 48.2°F9.0°C 39.2°F4.0°C 71% 13.8 mph WSW22.2 kmh WSW 17.3 mph27.8 kmh 29.50 in999.0 mb - 0.00 in0.0 mm 0.00 in0.0 mm
08:00 PM 47.8°F8.8°C 39.2°F4.0°C 72% 9.2 mph WNW14.8 kmh WNW 11.5 mph18.5 kmh 29.53 in1000.0 mb - 0.00 in0.0 mm 0.00 in0.0 mm
08:10 PM 47.6°F8.7°C 39.7°F4.3°C 74% 11.5 mph WSW18.5 kmh WSW 13.8 mph22.2 kmh 29.53 in1000.0 mb - 0.00 in0.0 mm 0.00 in0.0 mm
08:20 PM 47.3°F8.5°C 39.8°F4.3°C 75% 10.4 mph SW16.7 kmh SW 10.4 mph16.7 kmh 29.53 in1000.0 mb - 0.00 in0.0 mm 0.00 in0.0 mm
08:30 PM 47.1°F8.4°C 39.9°F4.4°C 76% 11.5 mph SW18.5 kmh SW 16.1 mph25.9 kmh 29.53 in1000.0 mb - 0.00 in0.0 mm 0.00 in0.0 mm
08:40 PM 46.9°F8.3°C 39.8°F4.3°C 76% 8.1 mph WSW13.0 kmh WSW 5.8 mph9.3 kmh 29.53 in1000.0 mb - 0.00 in0.0 mm 0.00 in0.0 mm
08:50 PM 46.6°F8.1°C 39.8°F4.3°C 77% 8.1 mph WSW13.0 kmh WSW 6.9 mph11.1 kmh 29.53 in1000.0 mb - 0.00 in0.0 mm 0.00 in0.0 mm
09:00 PM 46.5°F8.1°C 39.7°F4.3°C 77% 8.1 mph WSW13.0 kmh WSW 6.9 mph11.1 kmh 29.56 in1001.0 mb - 0.00 in0.0 mm 0.00 in0.0 mm
09:10 PM 46.2°F7.9°C 40.1°F4.5°C 79% 8.1 mph W13.0 kmh W 9.2 mph14.8 kmh 29.56 in1001.0 mb - 0.00 in0.0 mm 0.00 in0.0 mm
09:20 PM 46.0°F7.8°C 39.9°F4.4°C 79% 9.2 mph WNW14.8 kmh WNW 9.2 mph14.8 kmh 29.56 in1001.0 mb - 0.00 in0.0 mm 0.00 in0.0 mm
09:30 PM 45.9°F7.7°C 39.4°F4.1°C 78% 8.1 mph WSW13.0 kmh WSW 6.9 mph11.1 kmh 29.56 in1001.0 mb - 0.00 in0.0 mm 0.00 in0.0 mm
09:40 PM 45.5°F7.5°C 39.4°F4.1°C 79% 6.9 mph WSW11.1 kmh WSW 8.1 mph13.0 kmh 29.56 in1001.0 mb - 0.00 in0.0 mm 0.00 in0.0 mm
09:50 PM 45.3°F7.4°C 39.2°F4.0°C 79% 5.8 mph W9.3 kmh W 5.8 mph9.3 kmh 29.56 in1001.0 mb - 0.00 in0.0 mm 0.00 in0.0 mm
10:00 PM 44.8°F7.1°C 39.0°F3.9°C 80% 4.6 mph WSW7.4 kmh WSW 4.6 mph7.4 kmh 29.56 in1001.0 mb - 0.00 in0.0 mm 0.00 in0.0 mm
10:10 PM 44.2°F6.8°C 38.1°F3.4°C 79% 2.3 mph WSW3.7 kmh WSW 3.5 mph5.6 kmh 29.56 in1001.0 mb - 0.00 in0.0 mm 0.00 in0.0 mm
10:20 PM 43.9°F6.6°C 38.4°F3.6°C 81% 4.6 mph W7.4 kmh W 4.6 mph7.4 kmh 29.56 in1001.0 mb - 0.00 in0.0 mm 0.00 in0.0 mm
10:30 PM 43.7°F6.5°C 38.6°F3.7°C 82% 4.6 mph SSW7.4 kmh SSW 4.6 mph7.4 kmh 29.56 in1001.0 mb - 0.00 in0.0 mm 0.00 in0.0 mm
10:40 PM 43.5°F6.4°C 38.4°F3.6°C 82% 3.5 mph SW5.6 kmh SW 3.5 mph5.6 kmh 29.56 in1001.0 mb - 0.00 in0.0 mm 0.00 in0.0 mm
10:50 PM 43.3°F6.3°C 38.2°F3.4°C 82% 2.3 mph WSW3.7 kmh WSW 2.3 mph3.7 kmh 29.56 in1001.0 mb - 0.00 in0.0 mm 0.00 in0.0 mm
11:00 PM 42.8°F6.0°C 37.7°F3.2°C 82% 3.5 mph WSW5.6 kmh WSW 4.6 mph7.4 kmh 29.56 in1001.0 mb - 0.00 in0.0 mm 0.00 in0.0 mm
11:10 PM 43.0°F6.1°C 38.5°F3.6°C 84% 3.5 mph SW5.6 kmh SW 4.6 mph7.4 kmh 29.56 in1001.0 mb - 0.00 in0.0 mm 0.00 in0.0 mm
11:20 PM 43.2°F6.2°C 38.7°F3.7°C 84% 4.6 mph SW7.4 kmh SW 3.5 mph5.6 kmh 29.56 in1001.0 mb - 0.00 in0.0 mm 0.00 in0.0 mm
11:30 PM 43.3°F6.3°C 39.1°F3.9°C 85% 4.6 mph W7.4 kmh W 4.6 mph7.4 kmh 29.56 in1001.0 mb - 0.00 in0.0 mm 0.00 in0.0 mm
11:40 PM 43.3°F6.3°C 39.1°F3.9°C 85% 4.6 mph WSW7.4 kmh WSW 4.6 mph7.4 kmh 29.53 in1000.0 mb - 0.00 in0.0 mm 0.00 in0.0 mm
11:50 PM 43.2°F6.2°C 39.0°F3.9°C 85% 5.8 mph SW9.3 kmh SW 6.9 mph11.1 kmh 29.53 in1000.0 mb - 0.00 in0.0 mm 0.00 in0.0 mm